Location: Dumpton Point
(51.3500°N, 1.4433°E)
Time: 18:33:54
(UTC+00:00)

Iridium 4 Rocket - Pass Details

Date: 09 April 2020
Orbit: 585 x 904 km, 86.9° (Epoch: 24 May)

Event Time Altitude Azimuth Distance (km) Brightness Sun altitude
Rises 21:31:01 0° 349° (N) 2,864 7.5 -23.0°
Reaches altitude 10° 21:33:23 10° 340° (NNW) 1,936 6.6 -23.2°
Maximum altitude 21:37:09 32° 276° (W) 1,009 4.5 -23.6°
Enters shadow 21:38:57 23° 232° (SW) 1,279 4.6 -23.8°
